Change the Weather History Date:

Wednesday, March 20, 2013

  Actual Average (KRWF) Record (KRWF)
Temperature  
Mean Temperature 10 °F -  
Max Temperature 17 °F 40 °F 68 °F (1934)
Min Temperature 3 °F 27 °F -7 °F (1965)
Degree Days  
Heating Degree Days 55    
Moisture  
Dew Point 3 °F    
Average Humidity 71    
Maximum Humidity 85    
Minimum Humidity 58    
Precipitation  
Precipitation 0.00 in - - ()
Sea Level Pressure  
Sea Level Pressure 30.23 in    
Wind  
Wind Speed 14 mph (NW)    
Max Wind Speed 24 mph    
Max Gust Speed 33 mph    
Visibility 10 miles    
Events      
Averages and records for this station are not official NWS values.
T = Trace of Precipitation, MM = Missing Value Source: NWS Daily Summary

Daily Weather History Graph

Daily Weather History Graph

Search for Another Location

Airport or City:

Trip Planner

Search our weather history database for the weather conditions in past years. The results will help you decide how hot, cold, wet, or windy it might be!

Date:

Astronomy

Mar. 20, 2013 Rise Set
Actual Time 7:22 AM CDT 7:32 PM CDT
Civil Twilight 6:53 AM CDT 8:02 PM CDT
Nautical Twilight 6:19 AM CDT 8:36 PM CDT
Astronomical Twilight 5:44 AM CDT 9:11 PM CDT
Moon 12:55 PM CDT (3/20) 3:16 AM CDT (3/20)
Length of Visible Light 13h 08m
Length of Day
12h 10m
First Quarter, 59% of the Moon is Illuminated
Mar 20
First Quarter
Mar 27
Full
Apr 2
Last Quarter
Apr 10
New
Apr 18
First Quarter

Hourly Weather History & Observations

Time (CDT) Temp. Windchill Dew Point Humidity Pressure Visibility Wind Dir Wind Speed Gust Speed Precip Events Conditions
12:30 AM 10.4 °F -4.8 °F 5.0 °F 79% 30.27 in 10.0 mi WNW 12.7 mph - N/A   Clear
12:51 AM 10.4 °F -5.4 °F 5.0 °F 79% 30.27 in 10.0 mi WNW 13.8 mph - N/A   Clear
1:11 AM 10.4 °F -5.4 °F 5.0 °F 79% 30.27 in 10.0 mi WNW 13.8 mph - N/A   Clear
1:30 AM 10.4 °F -6.6 °F 3.2 °F 73% 30.26 in 10.0 mi WNW 16.1 mph 21.9 mph N/A   Clear
1:50 AM 8.6 °F -7.7 °F 1.4 °F 73% 30.27 in 10.0 mi WNW 13.8 mph 18.4 mph N/A   Clear
2:11 AM 8.6 °F -7.7 °F 1.4 °F 73% 30.27 in 10.0 mi WNW 13.8 mph 17.3 mph N/A   Clear
2:31 AM 8.6 °F -8.3 °F 1.4 °F 73% 30.28 in 10.0 mi NW 15.0 mph 23.0 mph N/A   Clear
2:50 AM 8.6 °F -8.3 °F 1.4 °F 73% 30.28 in 10.0 mi NW 15.0 mph 21.9 mph N/A   Clear
3:11 AM 8.6 °F -8.3 °F 1.4 °F 73% 30.28 in 10.0 mi NW 15.0 mph 21.9 mph N/A   Clear
3:31 AM 8.6 °F -8.3 °F 1.4 °F 73% 30.28 in 10.0 mi NW 15.0 mph 21.9 mph N/A   Clear
3:50 AM 6.8 °F -10.0 °F 1.4 °F 79% 30.27 in 10.0 mi NW 13.8 mph 19.6 mph N/A   Clear
4:11 AM 5.0 °F -11.6 °F -0.4 °F 78% 30.27 in 10.0 mi WNW 12.7 mph 19.6 mph N/A   Clear
4:31 AM 5.0 °F -11.6 °F -0.4 °F 78% 30.27 in 10.0 mi WNW 12.7 mph 20.7 mph N/A   Clear
4:51 AM 5.0 °F -12.3 °F -0.4 °F 78% 30.27 in 10.0 mi WNW 13.8 mph - N/A   Clear
5:10 AM 5.0 °F -11.6 °F -0.4 °F 78% 30.27 in 10.0 mi WNW 12.7 mph - N/A   Clear
5:31 AM 5.0 °F -11.6 °F -0.4 °F 78% 30.27 in 10.0 mi NW 12.7 mph 19.6 mph N/A   Clear
5:51 AM 5.0 °F -11.6 °F -0.4 °F 78% 30.28 in 10.0 mi WNW 12.7 mph - N/A   Clear
6:11 AM 3.2 °F -12.2 °F -0.4 °F 85% 30.28 in 10.0 mi WNW 10.4 mph 17.3 mph N/A   Clear
6:31 AM 3.2 °F -13.9 °F -0.4 °F 85% 30.29 in 10.0 mi WNW 12.7 mph - N/A   Clear
6:50 AM 3.2 °F -13.1 °F -2.2 °F 78% 30.29 in 10.0 mi WNW 11.5 mph - N/A   Clear
7:11 AM 3.2 °F -13.1 °F -2.2 °F 78% 30.29 in 10.0 mi WNW 11.5 mph - N/A   Clear
7:31 AM 3.2 °F -13.9 °F -2.2 °F 78% 30.29 in 10.0 mi WNW 12.7 mph - N/A   Clear
7:51 AM 3.2 °F -12.2 °F -4.0 °F 72% 30.30 in 10.0 mi WNW 10.4 mph - N/A   Clear
8:10 AM 3.2 °F -12.2 °F -2.2 °F 78% 30.29 in 10.0 mi WNW 10.4 mph - N/A   Clear
8:30 AM 3.2 °F -12.2 °F -2.2 °F 78% 30.29 in 10.0 mi WNW 10.4 mph - N/A   Clear
8:51 AM 5.0 °F -11.6 °F -2.2 °F 72% 30.29 in 10.0 mi NW 12.7 mph - N/A   Clear
9:10 AM 5.0 °F -13.6 °F -0.4 °F 78% 30.29 in 10.0 mi NW 16.1 mph 20.7 mph N/A   Clear
9:31 AM 6.8 °F -11.3 °F -0.4 °F 72% 30.28 in 10.0 mi NW 16.1 mph 20.7 mph N/A   Clear
9:51 AM 8.6 °F -8.3 °F 1.4 °F 73% 30.28 in 10.0 mi WNW 15.0 mph 21.9 mph N/A   Clear
10:10 AM 8.6 °F -7.7 °F 1.4 °F 73% 30.28 in 10.0 mi NW 13.8 mph 19.6 mph N/A   Clear
10:31 AM 10.4 °F -6.0 °F 3.2 °F 73% 30.28 in 10.0 mi WNW 15.0 mph 19.6 mph N/A   Clear
10:51 AM 10.4 °F -7.2 °F 3.2 °F 73% 30.27 in 10.0 mi NW 17.3 mph - N/A   Clear
11:10 AM 10.4 °F -5.4 °F 1.4 °F 67% 30.27 in 10.0 mi NW 13.8 mph 23.0 mph N/A   Clear
11:31 AM 12.2 °F -3.1 °F 3.2 °F 67% 30.27 in 10.0 mi NW 13.8 mph 21.9 mph N/A   Clear
11:51 AM 12.2 °F -3.7 °F 3.2 °F 67% 30.26 in 10.0 mi WNW 15.0 mph 21.9 mph N/A   Clear
12:08 PM 12.2 °F -4.3 °F 3.2 °F 67% 30.25 in 10.0 mi WNW 16.1 mph 20.7 mph N/A   Clear
12:31 PM 15.8 °F 1.4 °F 5.0 °F 62% 30.25 in 10.0 mi WNW 13.8 mph 24.2 mph N/A   Clear
12:51 PM 15.8 °F 0.3 °F 5.0 °F 62% 30.24 in 10.0 mi WNW 16.1 mph 20.7 mph N/A   Clear
1:10 PM 15.8 °F -0.2 °F 5.0 °F 62% 30.24 in 10.0 mi WNW 17.3 mph 24.2 mph N/A   Clear
1:30 PM 15.8 °F 0.3 °F 5.0 °F 62% 30.23 in 10.0 mi NW 16.1 mph 25.3 mph N/A   Clear
1:51 PM 17.6 °F 0.9 °F 6.8 °F 63% 30.22 in 10.0 mi NW 20.7 mph 25.3 mph N/A   Clear
2:10 PM 17.6 °F 0.1 °F 8.6 °F 68% 30.21 in 10.0 mi NW 23.0 mph 31.1 mph N/A   Clear
2:31 PM 17.6 °F 0.1 °F 6.8 °F 63% 30.21 in 10.0 mi NW 23.0 mph 28.8 mph N/A   Clear
2:51 PM 17.6 °F 0.9 °F 8.6 °F 68% 30.20 in 10.0 mi NW 20.7 mph 27.6 mph N/A   Clear
3:10 PM 17.6 °F 2.2 °F 6.8 °F 63% 30.19 in 10.0 mi NW 17.3 mph 29.9 mph N/A   Clear
3:31 PM 17.6 °F -0.3 °F 8.6 °F 68% 30.19 in 10.0 mi NW 24.2 mph 32.2 mph N/A   Clear
3:50 PM 17.6 °F 0.1 °F 6.8 °F 63% 30.18 in 10.0 mi NW 23.0 mph 33.4 mph N/A   Clear
4:11 PM 17.6 °F 0.1 °F 6.8 °F 63% 30.18 in 10.0 mi NW 23.0 mph 26.5 mph N/A   Clear
4:30 PM 17.6 °F 0.5 °F 6.8 °F 63% 30.18 in 10.0 mi NW 21.9 mph 27.6 mph N/A   Clear
4:51 PM 17.6 °F 0.1 °F 6.8 °F 63% 30.17 in 10.0 mi NW 23.0 mph 29.9 mph N/A   Clear
5:10 PM 17.6 °F 0.1 °F 6.8 °F 63% 30.17 in 10.0 mi NW 23.0 mph 29.9 mph N/A   Clear
5:31 PM 17.6 °F 1.7 °F 6.8 °F 63% 30.17 in 10.0 mi NW 18.4 mph 29.9 mph N/A   Clear
5:50 PM 17.6 °F 2.2 °F 6.8 °F 63% 30.16 in 10.0 mi NW 17.3 mph 26.5 mph N/A   Clear
6:11 PM 17.6 °F 2.7 °F 5.0 °F 58% 30.16 in 10.0 mi NW 16.1 mph 27.6 mph N/A   Clear
6:30 PM 15.8 °F -0.6 °F 5.0 °F 62% 30.16 in 10.0 mi NW 18.4 mph - N/A   Clear
6:50 PM 15.8 °F -1.1 °F 5.0 °F 62% 30.15 in 10.0 mi NW 19.6 mph 24.2 mph N/A   Clear
7:11 PM 15.8 °F 2.7 °F 5.0 °F 62% 30.16 in 10.0 mi NW 11.5 mph 18.4 mph N/A   Clear
7:30 PM 15.8 °F 0.3 °F 5.0 °F 62% 30.16 in 10.0 mi NW 16.1 mph 21.9 mph N/A   Clear
7:51 PM 12.2 °F -3.1 °F 3.2 °F 67% 30.16 in 10.0 mi NW 13.8 mph - N/A   Clear
8:11 PM 12.2 °F -4.3 °F 5.0 °F 73% 30.15 in 10.0 mi NW 16.1 mph - N/A   Clear
8:30 PM 12.2 °F -1.8 °F 5.0 °F 73% 30.16 in 10.0 mi NW 11.5 mph - N/A   Clear
8:51 PM 12.2 °F -1.8 °F 5.0 °F 73% 30.16 in 10.0 mi NW 11.5 mph - N/A   Clear
9:11 PM 10.4 °F -3.3 °F 3.2 °F 73% 30.16 in 10.0 mi NW 10.4 mph - N/A   Clear
9:31 PM 10.4 °F -2.4 °F 3.2 °F 73% 30.16 in 10.0 mi NW 9.2 mph - N/A   Clear
9:50 PM 10.4 °F -1.5 °F 3.2 °F 73% 30.16 in 10.0 mi NW 8.1 mph - N/A   Clear
10:11 PM 10.4 °F -0.4 °F 3.2 °F 73% 30.16 in 10.0 mi NW 6.9 mph - N/A   Clear
10:31 PM 10.4 °F -2.4 °F 3.2 °F 73% 30.15 in 10.0 mi NNW 9.2 mph - N/A   Clear
10:50 PM 8.6 °F -3.7 °F 1.4 °F 73% 30.15 in 10.0 mi NW 8.1 mph - N/A   Clear
11:11 PM 8.6 °F -2.6 °F 1.4 °F 73% 30.15 in 10.0 mi NW 6.9 mph - N/A   Clear
11:30 PM 8.6 °F -3.7 °F 1.4 °F 73% 30.14 in 10.0 mi NNW 8.1 mph - N/A   Clear
11:51 PM 6.8 °F -3.5 °F 1.4 °F 79% 30.13 in 10.0 mi NW 5.8 mph - N/A   Clear